CAPE
0 0 0 0 0 0 0 0 0 0 0 0 0 0 0 0 0 0 0 0 0 0 0 0 0 0 0 0 0 0 0 0 0 0 0 0 0 0 0 0 0 0 0 0
0 0 0 0 0 0 0 0 0 0 0 0 0 0 0 0 0 0 0 0 0 0 0 0 0 0 0 0 0 0 0 0 0 0 0 0 0 0 0 0 0 0 0 0
0 0 0 0 0 0 0 0 0 0 0 0 0 0 0 0 0 0 0 0 0 0 0 0 0 0 0 0 0 0 0 0 0 0 0 0 0 0 0 0 0 0 0 0
0 0 0 0 0 0 0 0 0 0 0 0 0 0 0 0 0 0 0 0 0 0 0 0 0 0 0 0 0 0 0 0 0 0 0 0 0 0 0 0 0 0 0 0
0 0 0 0 0 0 0 0 0 0 0 0 0 0 0 0 0 0 0 0 0 0 0 0 0 0 0 0 0 0 0 0 0 0 0 0 0 0 0 0 0 0 0 0
0 0 0 0 0 0 0 0 0 0 0 2 0 0 0 0 0 0 0 0 0 0 0 0 0 0 0 0 0 0 0 0 0 0 0 0 0 0 0 0 0 0 0 0
0 0 0 0 0 0 3 42 75 69 71 65 0 0 0 0 0 0 0 0 0 0 0 0 0 0 0 0 0 0 0 0 0 0 0 0 0 0 0 0 0 0 0 0
0 0 0 0 0 25 26 61 54 40 0 7 0 0 1 0 0 0 0 0 0 0 0 0 0 0 0 0 0 0 0 0 0 0 0 0 0 0 0 0 0 0 0 0
3 0 0 0 0 1 5 36 0 1 0 0 0 0 0 0 0 0 0 0 0 0 0 0 0 0 0 0 0 0 0 0 0 0 0 0 0 0 0 0 0 0 0 0
1 0 0 0 2 21 59 0 7 10 6 0 0 0 1 0 0 0 0 0 0 0 0 0 0 0 0 0 0 0 0 0 0 0 0 0 0 0 0 0 0 0 0 0
0 0 0 0 0 43 33 0 0 5 4 1 0 13 0 0 0 0 0 0 0 0 0 0 0 0 0 0 0 0 0 0 0 0 0 0 0 0 0 0 0 0 0 0
7 1 0 0 0 0 0 0 0 73 1 2 1 1 0 0 0 0 0 0 0 0 0 0 0 0 0 0 0 0 0 0 0 0 0 0 0 0 0 0 0 0 0 0
3 2 7 9 0 0 0 0 0 0 1 5 27 38 0 0 0 0 0 0 0 0 0 0 0 0 0 0 0 0 0 0 0 0 0 0 0 0 0 0 0 0 0 0
4 14 2 21 2 0 0 0 0 0 3 3 3 0 0 0 0 0 0 0 0 0 0 0 0 0 0 0 0 0 0 0 0 0 0 0 0 0 0 0 0 0 0 0
7 11 15 8 9 13 0 0 0 0 0 1 0 0 0 0 0 0 0 0 0 0 0 0 0 0 0 0 0 0 0 0 0 0 0 0 0 0 0 0 0 0 0 0
0 6 0 1 0 0 0 0 0 0 1 0 0 0 0 0 0 0 0 0 0 0 0 0 0 0 0 0 0 0 0 0 0 0 0 0 0 0 0 0 0 0 0 0
0 0 28 3 0 0 0 0 0 0 0 0 0 0 0 0 0 0 0 0 0 0 0 0 0 0 0 0 0 0 0 0 0 0 0 0 0 0 0 0 0 0 0 0
3 4 12 15 0 3 1 0 0 0 0 0 0 0 0 0 0 0 0 0 0 0 0 0 0 0 0 0 0 0 0 0 0 0 0 0 0 0 0 0 0 0 0 0
8 4 5 24 1 0 0 0 0 0 0 0 0 0 0 0 0 0 0 0 0 0 0 0 0 0 0 0 0 0 0 0 0 0 0 0 0 0 0 0 0 0 0 0
8 2 8 19 1 0 0 0 0 0 0 0 0 0 0 0 0 0 0 0 0 0 0 0 0 0 0 0 0 0 0 0 0 0 0 0 0 0 0 0 0 0 0 0
16 14 3 7 4 0 0 0 0 0 0 0 0 0 0 0 0 0 0 0 0 0 0 0 0 0 0 0 0 0 0 0 0 0 0 0 0 0 0 0 0 0 0 0
13 13 14 17 1 0 0 0 0 0 0 0 0 0 0 0 0 0 0 0 0 0 0 0 0 0 0 0 0 0 0 0 0 0 0 0 0 0 0 0 0 0 0 0
10 3 16 1 1 0 0 0 0 0 0 0 0 0 0 0 0 0 0 0 0 0 0 0 0 0 0 0 0 0 0 0 0 0 0 0 0 0 0 0 0 0 0 0
1 1 23 0 0 0 0 0 0 0 0 0 0 0 0 0 0 0 0 0 0 0 0 0 0 0 0 0 0 0 0 0 0 0 0 0 0 0 0 0 0 0 0 0
0 1 0 0 0 0 0 0 0 0 0 0 0 0 0 0 0 0 0 0 0 0 0 0 0 0 0 0 0 0 0 0 0 0 0 0 0 0 0 0 0 0 0 0
7 5 1 0 0 0 0 0 0 0 0 0 0 0 0 0 0 0 0 0 0 0 0 0 0 0 0 0 0 0 0 0 0 0 0 0 0 0 0 0 0 0 0 0
CIN
0 0 0 0 0 0 0 0 0 0 0 0 0 0 0 0 0 0 0 0 0 0 0 0 0 0 0 0 0 0 0 0 0 0 0 0 0 0 0 0 0 0 0 0
0 0 0 0 0 0 0 0 0 0 0 0 0 0 0 0 0 0 0 0 0 0 0 0 0 0 0 0 0 0 0 0 0 0 0 0 0 0 0 0 0 0 0 0
0 0 0 0 0 0 0 0 0 0 0 0 0 0 0 0 0 0 0 0 0 0 0 0 0 0 0 0 0 0 0 0 0 0 0 0 0 0 0 0 0 0 0 0
0 0 0 0 0 0 0 0 0 0 0 0 0 0 0 0 0 0 0 0 0 0 0 0 0 0 0 0 0 0 0 0 0 0 0 0 0 0 0 0 0 0 0 0
0 0 0 0 0 0 0 0 0 0 0 0 0 0 0 0 0 0 0 0 0 0 0 0 0 0 0 0 0 0 0 0 0 0 0 0 0 0 0 0 0 0 0 0
0 0 0 0 0 0 0 0 0 0 0 -11 0 0 0 0 0 0 0 0 0 0 0 0 0 0 0 0 0 0 0 0 0 0 0 0 0 0 0 0 0 0 0 0
0 0 0 0 0 0 -37 -27 -7 -5 -21 -13 0 0 0 0 0 0 0 0 0 0 0 0 0 0 0 0 0 0 0 0 0 0 0 0 0 0 0 0 0 0 0 0
0 0 0 0 0 -33 -79 -46 -54 0 -22 -40 0 0 -39 0 0 0 0 0 0 0 0 0 0 0 0 0 0 0 0 0 0 0 0 0 0 0 0 0 0 0 0 0
0 0 0 0 0 -19 -68 -41 0 0 0 0 0 0 0 0 0 0 0 0 0 0 0 0 0 0 0 0 0 0 0 0 0 0 0 0 0 0 0 0 0 0 0 0
0 0 0 0 -34 -123 -61 0 -1 -2 -1 0 0 0 -3 0 -102 0 0 0 0 0 0 0 0 0 0 0 0 0 0 0 0 0 0 0 0 0 0 0 0 0 0 0
-8 0 0 0 -8 -75 -73 0 0 0 0 0 0 -8 0 0 0 0 0 0 0 0 0 0 0 0 0 0 0 0 0 0 0 0 0 0 0 0 0 0 0 0 0 0
-1 0 0 0 0 0 0 0 0 -3 0 0 0 -1 0 0 0 0 0 0 0 0 0 0 0 0 0 0 0 0 0 0 0 0 0 0 0 0 0 0 0 0 0 0
0 0 -4 -1 -14 0 0 0 0 0 0 0 0 -13 0 0 0 0 0 0 0 0 0 0 0 0 0 0 0 0 0 0 0 0 0 0 0 0 0 0 0 0 0 0
-1 -6 -9 -7 -7 0 0 0 0 0 0 0 0 0 0 0 0 0 0 0 0 0 0 0 0 0 0 0 0 0 0 0 0 0 0 0 0 0 0 0 0 0 0 0
-1 -1 0 -1 -2 -2 -1 0 0 0 0 0 -29 0 0 0 0 0 0 0 0 0 0 0 0 0 0 0 0 0 0 0 0 0 0 0 0 0 0 0 0 0 0 0
0 0 0 -2 0 0 0 0 0 0 0 0 0 0 0 0 0 0 0 0 0 0 0 0 0 0 0 0 0 0 0 0 0 0 0 0 0 0 0 0 0 0 0 0
0 0 0 -1 0 0 0 0 0 0 0 0 0 0 0 0 0 0 0 0 0 0 0 0 0 0 0 0 0 0 0 0 0 0 0 0 0 0 0 0 0 0 0 0
0 0 0 0 0 -6 -1 0 0 0 0 0 0 0 0 0 0 0 0 0 0 0 0 0 0 0 0 0 0 0 0 0 0 0 0 0 0 0 0 0 0 0 0 0
0 0 0 -1 0 0 0 0 0 0 0 0 0 0 0 0 0 0 0 0 0 0 0 0 0 0 0 0 0 0 0 0 0 0 0 0 0 0 0 0 0 0 0 0
0 0 0 0 0 0 0 0 0 0 0 0 0 0 0 0 0 0 0 0 0 0 0 0 0 0 0 0 0 0 0 0 0 0 0 0 0 0 0 0 0 0 0 0
0 0 0 0 0 0 0 0 0 0 0 0 0 0 0 0 0 0 0 0 0 0 0 0 0 0 0 0 0 0 0 0 0 0 0 0 0 0 0 0 0 0 0 0
0 0 0 0 0 0 0 0 0 0 0 0 0 0 0 0 0 0 0 0 0 0 0 0 0 0 0 0 0 0 0 0 0 0 0 0 0 0 0 0 0 0 0 0
0 0 0 0 -10 0 0 0 0 0 0 0 0 0 0 0 0 0 0 0 0 0 0 0 0 0 0 0 0 0 0 0 0 0 0 0 0 0 0 0 0 0 0 0
0 0 0 0 0 0 0 0 0 0 0 0 0 0 0 0 0 0 0 0 0 0 0 0 0 0 0 0 0 0 0 0 0 0 0 0 0 0 0 0 0 0 0 0
0 0 0 0 0 0 0 0 0 0 0 0 0 0 0 0 0 0 0 0 0 0 0 0 0 0 0 0 0 0 0 0 0 0 0 0 0 0 0 0 0 0 0 0
0 0 0 0 0 0 0 0 0 0 0 0 0 0 0 0 0 0 0 0 0 0 0 0 0 0 0 0 0 0 0 0 0 0 0 0 0 0 0 0 0 0 0 0
Wind_Speed
3 3 1 4 1 3 3 2 3 4 3 8 11 14 11 15 14 15 16 15 15 13 7 8 10 10 10 8 7 6 6 5 3 3 4 2 3 4 5 6 9 10 11 11
3 3 2 3 3 3 4 7 9 3 2 9 3 14 10 16 20 22 21 18 16 11 10 10 12 11 10 9 7 7 6 5 4 3 3 2 3 3 4 5 8 10 11 12
2 3 4 2 2 5 4 7 7 11 3 5 4 7 5 7 12 14 15 16 14 15 15 14 13 12 10 9 7 7 6 6 5 5 2 3 2 3 4 6 7 9 12 12
3 3 2 2 2 1 4 7 14 7 6 5 3 6 5 2 8 14 15 15 15 15 14 13 15 13 11 9 8 7 6 6 5 5 4 5 5 6 6 6 7 9 11 11
3 2 1 2 2 2 4 5 5 2 5 3 3 3 3 1 5 10 17 18 16 17 17 16 15 13 11 10 8 7 7 5 5 5 5 5 7 5 6 7 12 11 11 11
6 3 3 2 3 2 2 3 5 3 1 1 1 3 3 3 3 4 1 16 17 16 13 15 14 13 12 9 8 7 6 5 5 4 5 6 7 9 9 11 10 10 10 9
6 2 5 3 2 1 3 5 2 3 1 3 1 3 5 8 6 7 4 14 16 15 17 17 17 14 12 10 8 6 5 5 4 5 5 6 7 10 11 11 10 12 10 10
4 2 7 6 2 1 3 3 5 4 4 3 1 4 2 3 7 11 3 10 14 16 15 17 17 14 13 11 8 7 6 4 4 5 6 5 7 7 7 9 9 9 9 10
5 3 4 4 1 2 3 3 2 1 1 3 3 2 2 5 9 10 8 8 12 15 16 18 16 13 12 10 8 7 5 4 5 5 5 6 7 8 7 10 10 9 10 10
3 6 1 4 1 9 2 7 2 2 3 2 4 2 1 8 9 3 6 8 11 13 16 16 14 13 10 9 8 6 4 5 4 5 5 5 7 7 8 9 12 13 12 12
3 2 3 3 1 3 3 3 4 4 1 1 3 1 4 6 6 3 6 9 11 13 15 15 13 11 11 9 8 6 5 5 4 5 5 6 6 8 8 9 12 12 12 13
6 3 5 4 1 3 1 3 5 3 3 2 1 6 2 4 7 3 8 10 11 13 14 14 14 12 11 9 8 6 5 4 4 4 5 6 7 8 9 10 13 13 13 14
7 2 4 2 1 1 3 2 3 5 2 5 2 5 3 2 4 5 10 11 13 14 14 13 12 11 10 9 7 6 5 4 4 5 5 6 8 9 9 11 13 13 13 14
2 5 5 4 5 2 3 1 3 5 3 3 7 10 7 5 3 8 10 12 14 14 15 13 11 10 9 8 7 6 5 3 4 5 5 7 8 8 9 11 13 13 13 14
4 5 6 13 16 13 13 11 10 10 8 6 5 7 5 5 6 11 12 14 16 15 15 13 12 11 10 8 7 6 5 4 4 5 5 6 7 8 9 11 12 12 13 13
8 6 11 10 14 13 15 15 15 17 10 19 15 17 8 2 11 13 15 17 17 16 15 14 13 12 11 10 8 6 5 5 5 5 6 6 7 9 10 11 12 13 14 14
6 5 4 4 10 7 5 11 15 7 7 6 9 10 4 5 10 16 17 18 19 18 17 16 14 13 10 10 9 8 6 6 5 5 5 6 7 9 10 11 12 14 14 14
9 7 3 5 9 2 3 2 4 9 9 12 12 5 4 0 6 12 14 20 17 16 16 14 13 12 11 11 9 8 7 6 5 5 6 6 7 9 10 11 12 13 13 14
17 6 3 4 4 6 1 3 3 2 3 1 4 6 5 9 8 4 14 16 19 19 16 14 13 13 13 12 10 9 7 6 5 6 6 6 7 9 9 11 12 11 12 13
12 10 3 2 2 2 3 3 4 2 1 2 1 6 10 11 5 5 15 14 14 15 15 16 14 14 14 12 11 10 8 6 6 6 6 6 7 8 9 9 10 10 10 12
4 4 9 6 3 7 8 8 4 2 4 5 2 7 12 7 2 7 17 15 15 17 17 15 15 15 14 13 12 10 9 7 6 7 6 6 7 8 8 8 9 9 10 11
5 5 5 4 3 5 2 4 4 3 4 4 3 5 10 4 8 17 18 18 17 17 17 16 16 14 14 14 12 11 9 8 7 8 7 6 7 6 6 9 8 10 11 12
4 5 7 5 5 4 5 5 7 4 3 3 2 5 8 9 10 15 16 17 16 18 16 14 15 16 13 13 11 12 10 9 8 8 7 6 7 7 7 8 9 8 10 11
8 12 6 4 1 8 8 6 4 2 3 3 1 7 10 10 14 15 15 14 15 14 16 15 17 16 14 12 11 11 12 10 8 8 8 6 6 7 7 6 7 8 9 9
10 10 7 7 7 14 2 10 13 7 2 2 3 6 10 16 14 16 14 14 14 15 14 15 16 15 15 13 12 12 12 11 9 8 7 6 5 6 7 8 7 7 10 10
3 6 3 4 12 8 17 17 19 9 2 3 8 10 10 13 17 15 13 14 15 15 15 14 14 15 15 14 13 13 12 11 10 8 6 5 5 5 4 5 6 12 11 13
Wind_Direction
26 59 244 250 151 92 112 186 265 243 213 207 230 254 223 192 207 202 198 196 199 203 187 166 159 146 141 139 139 131 115 69 22 357 343 320 351 356 11 11 12 7 2 355
20 302 238 172 196 245 262 280 276 261 174 217 232 264 241 195 211 205 199 200 199 180 175 167 156 151 154 146 134 118 102 80 46 18 6 329 340 334 357 360 6 2 356 358
175 247 122 138 284 295 300 272 259 262 149 212 280 265 250 217 229 216 214 209 198 188 182 173 163 157 148 146 137 126 105 81 50 19 2 356 317 319 342 357 354 356 358 350
258 329 226 191 251 221 308 285 265 222 192 267 243 293 264 213 230 221 210 202 198 193 192 172 163 157 154 141 129 124 105 77 55 26 21 12 1 357 349 339 342 349 346 339
274 293 331 308 197 200 327 346 305 257 167 160 183 242 266 338 274 243 214 202 195 196 189 171 164 152 144 138 135 119 104 80 56 37 11 2 8 344 338 346 344 339 339 341
264 284 261 259 119 231 142 49 34 44 228 214 348 238 292 321 343 321 227 199 192 187 170 154 145 137 134 132 131 124 111 79 52 27 24 16 3 358 1 358 343 343 340 340
312 286 330 25 231 173 77 45 328 279 215 240 185 218 282 319 353 312 284 193 186 163 153 150 144 145 142 144 139 126 113 76 45 31 22 13 4 12 9 356 347 344 343 343
329 326 357 353 13 278 64 114 141 293 328 330 118 241 96 35 29 2 265 175 153 148 150 150 147 146 146 146 139 130 110 92 53 28 22 11 16 15 8 356 351 348 343 336
338 295 322 10 347 351 110 71 35 185 158 262 289 309 195 18 35 39 54 127 140 142 146 145 143 143 146 144 136 128 123 97 57 24 23 20 18 13 3 358 354 349 344 340
258 296 282 298 281 47 200 144 47 54 284 259 291 239 283 330 341 24 93 119 130 137 139 142 141 144 144 128 127 125 122 80 58 40 22 19 15 8 2 356 354 352 349 348
300 192 303 299 340 188 146 122 75 108 302 183 296 141 202 290 316 300 122 129 142 143 145 142 141 144 126 129 133 134 111 92 63 37 20 17 11 7 2 357 356 355 350 351
331 285 275 267 263 299 309 186 150 170 181 201 284 273 154 284 303 153 132 137 137 143 145 143 146 135 134 138 142 132 109 93 58 37 27 16 12 5 4 1 2 359 356 356
341 268 301 229 261 340 250 214 109 102 80 187 239 265 26 25 68 106 140 142 144 144 143 147 142 138 146 145 146 132 103 101 70 49 28 24 16 10 8 5 3 2 1 358
298 261 235 261 313 325 307 254 134 76 196 154 238 264 259 270 179 147 149 150 148 151 156 150 143 148 149 155 144 123 115 110 74 57 33 27 19 15 12 7 6 7 4 1
14 276 276 281 286 279 266 257 180 194 188 203 268 226 265 250 203 168 159 152 148 160 165 158 154 153 159 150 135 128 129 105 82 64 40 32 25 24 15 13 13 10 10 6
340 277 315 295 284 258 250 245 233 230 223 236 256 286 230 212 118 147 169 160 163 171 166 162 159 163 164 148 148 144 132 116 94 68 46 34 31 28 19 17 16 15 13 11
299 285 315 282 310 309 272 238 228 202 213 186 199 227 187 182 177 171 172 172 173 174 168 169 169 172 157 153 153 149 141 117 95 74 54 41 35 31 24 21 19 18 13 10
238 244 308 290 298 251 261 287 211 218 245 214 257 226 228 181 167 175 176 171 173 167 166 169 170 163 147 144 148 135 137 120 100 79 60 46 40 36 29 25 26 20 15 16
204 205 261 277 286 294 325 35 346 265 347 322 259 222 124 123 119 136 181 184 172 170 168 169 166 146 140 149 147 140 134 123 108 79 63 51 41 41 33 28 25 22 17 20
185 228 275 258 282 304 282 319 330 193 310 336 199 170 152 158 168 156 172 165 153 157 159 159 153 137 142 148 148 142 138 132 110 87 73 62 50 49 43 29 26 24 25 25
197 186 227 249 282 281 265 313 308 19 312 329 331 195 169 180 52 124 151 150 152 155 153 148 145 144 146 151 149 144 140 132 120 101 87 70 61 55 46 41 29 27 31 30
281 188 180 202 227 263 305 339 2 264 304 294 50 134 160 114 109 139 140 140 144 143 146 151 142 143 146 154 153 143 140 136 128 108 93 79 70 60 50 47 35 32 34 35
293 5 315 237 231 274 275 254 272 257 268 328 122 160 149 128 131 141 140 145 149 148 150 150 143 139 149 158 156 147 143 143 131 113 102 89 81 66 53 52 45 35 32 37
300 300 264 284 236 297 286 304 277 259 268 318 255 159 155 136 144 140 140 142 142 148 151 148 145 146 151 159 158 144 148 145 136 119 114 108 94 85 68 61 50 46 37 34
266 305 272 275 338 337 69 351 359 310 353 36 119 154 145 141 148 146 149 146 145 149 150 153 152 153 154 156 152 148 152 149 140 131 124 119 102 92 84 64 47 58 48 36
225 240 318 298 323 332 294 306 311 306 346 114 134 117 130 150 149 155 152 147 147 150 151 151 151 151 153 154 154 154 157 159 151 144 141 136 126 111 100 99 90 59 57 51